TimeEST,TemperatureF,Dew PointF,Humidity,Sea Level PressureIn,VisibilityMPH,Wind Direction,Wind SpeedMPH,Gust SpeedMPH,PrecipitationIn,Events,Conditions,WindDirDegrees,DateUTC
12:15 AM,15.8,6.8,68,30.20,10.0,NNE,6.9,-,N/A,,Overcast,30,2011-12-23 05:15:00
12:35 AM,15.8,5.0,62,30.20,10.0,North,5.8,-,N/A,,Overcast,360,2011-12-23 05:35:00
12:55 AM,15.8,5.0,62,30.20,10.0,NNE,5.8,-,N/A,,Overcast,30,2011-12-23 05:55:00
1:15 AM,15.8,5.0,62,30.20,10.0,NE,5.8,-,N/A,,Overcast,40,2011-12-23 06:15:00
1:35 AM,15.8,5.0,62,30.21,10.0,ENE,3.5,-,N/A,,Overcast,60,2011-12-23 06:35:00
1:55 AM,15.8,5.0,62,30.21,10.0,NNE,3.5,-,N/A,,Overcast,20,2011-12-23 06:55:00
2:15 AM,15.8,3.2,58,30.22,10.0,North,3.5,-,N/A,,Overcast,10,2011-12-23 07:15:00
3:15 AM,15.8,3.2,58,30.23,10.0,NE,4.6,-,N/A,,Overcast,50,2011-12-23 08:15:00
3:35 AM,14.0,3.2,62,30.23,10.0,ENE,5.8,-,N/A,,Overcast,70,2011-12-23 08:35:00
3:55 AM,14.0,3.2,62,30.23,10.0,ENE,5.8,-,N/A,,Overcast,70,2011-12-23 08:55:00
4:15 AM,14.0,3.2,62,30.23,10.0,NE,6.9,-,N/A,,Overcast,50,2011-12-23 09:15:00
4:35 AM,12.2,3.2,67,30.24,10.0,ENE,8.1,-,N/A,,Overcast,60,2011-12-23 09:35:00
4:55 AM,12.2,3.2,67,30.23,10.0,NE,9.2,-,N/A,,Overcast,50,2011-12-23 09:55:00
5:15 AM,12.2,1.4,62,30.23,10.0,NE,6.9,-,N/A,,Overcast,50,2011-12-23 10:15:00
5:35 AM,12.2,1.4,62,30.24,10.0,NE,8.1,-,N/A,,Overcast,50,2011-12-23 10:35:00
5:55 AM,10.4,1.4,67,30.25,10.0,NE,8.1,-,N/A,,Overcast,40,2011-12-23 10:55:00
6:15 AM,10.4,1.4,67,30.26,10.0,NE,6.9,-,N/A,,Overcast,50,2011-12-23 11:15:00
6:35 AM,10.4,1.4,67,30.25,10.0,NE,6.9,-,N/A,,Overcast,40,2011-12-23 11:35:00
6:55 AM,10.4,1.4,67,30.26,10.0,ENE,6.9,-,N/A,,Overcast,70,2011-12-23 11:55:00
7:15 AM,10.4,1.4,67,30.25,10.0,East,9.2,-,N/A,,Overcast,90,2011-12-23 12:15:00
7:35 AM,10.4,1.4,67,30.26,10.0,ENE,8.1,-,N/A,,Overcast,60,2011-12-23 12:35:00
8:55 AM,10.4,1.4,67,30.27,10.0,ESE,5.8,-,N/A,,Mostly Cloudy,110,2011-12-23 13:55:00
9:15 AM,10.4,1.4,67,30.27,10.0,East,8.1,-,N/A,,Overcast,100,2011-12-23 14:15:00
9:35 AM,10.4,1.4,67,30.27,10.0,ESE,10.4,-,N/A,,Overcast,110,2011-12-23 14:35:00
9:55 AM,10.4,3.2,73,30.27,10.0,SE,10.4,-,N/A,,Overcast,130,2011-12-23 14:55:00
10:15 AM,10.4,3.2,73,30.28,10.0,ESE,9.2,-,N/A,,Overcast,110,2011-12-23 15:15:00
10:35 AM,10.4,3.2,73,30.28,10.0,ESE,9.2,-,N/A,,Overcast,110,2011-12-23 15:35:00
10:55 AM,12.2,3.2,67,30.28,10.0,ESE,10.4,-,N/A,,Overcast,110,2011-12-23 15:55:00
11:15 AM,12.2,3.2,67,30.27,9.0,East,12.7,-,N/A,,Overcast,100,2011-12-23 16:15:00
11:35 AM,12.2,5.0,73,30.27,10.0,ESE,13.8,-,N/A,,Overcast,110,2011-12-23 16:35:00
11:55 AM,14.0,6.8,73,30.25,10.0,ESE,12.7,-,N/A,,Overcast,110,2011-12-23 16:55:00
12:15 PM,15.8,8.6,73,30.24,10.0,ESE,12.7,-,N/A,,Overcast,110,2011-12-23 17:15:00
12:35 PM,15.8,8.6,73,30.24,10.0,ESE,12.7,-,N/A,,Overcast,120,2011-12-23 17:35:00
12:55 PM,17.6,8.6,68,30.23,10.0,SE,12.7,-,N/A,,Overcast,130,2011-12-23 17:55:00
1:15 PM,17.6,8.6,68,30.22,10.0,SE,12.7,-,N/A,,Overcast,130,2011-12-23 18:15:00
2:15 PM,17.6,10.4,73,30.22,10.0,ESE,10.4,-,N/A,,Overcast,110,2011-12-23 19:15:00
2:35 PM,17.6,10.4,73,30.21,9.0,ESE,11.5,-,N/A,,Overcast,110,2011-12-23 19:35:00
2:55 PM,17.6,10.4,73,30.21,8.0,East,8.1,-,N/A,,Overcast,100,2011-12-23 19:55:00
3:15 PM,17.6,10.4,73,30.20,3.0,East,12.7,-,N/A,,Overcast,100,2011-12-23 20:15:00
3:35 PM,17.6,10.4,73,30.20,5.0,East,10.4,-,N/A,,Overcast,100,2011-12-23 20:35:00
3:55 PM,17.6,10.4,73,30.20,5.0,East,12.7,-,N/A,,Overcast,100,2011-12-23 20:55:00
4:15 PM,17.6,12.2,79,30.20,5.0,East,11.5,-,N/A,,Overcast,100,2011-12-23 21:15:00
4:55 PM,17.6,10.4,73,30.20,2.5,East,12.7,18.4,N/A,,Overcast,100,2011-12-23 21:55:00
5:15 PM,17.6,12.2,79,30.19,2.5,East,15.0,18.4,N/A,,Overcast,100,2011-12-23 22:15:00
5:35 PM,17.6,12.2,79,30.19,3.0,East,12.7,-,N/A,,Overcast,100,2011-12-23 22:35:00
5:55 PM,17.6,12.2,79,30.20,3.0,East,13.8,-,N/A,,Overcast,100,2011-12-23 22:55:00
6:35 PM,17.6,12.2,79,30.20,3.0,East,16.1,-,N/A,,Overcast,90,2011-12-23 23:35:00
6:55 PM,17.6,12.2,79,30.20,2.5,East,15.0,19.6,N/A,,Overcast,100,2011-12-23 23:55:00
7:15 PM,19.4,12.2,74,30.20,3.0,East,16.1,-,N/A,,Overcast,100,2011-12-24 00:15:00
7:35 PM,19.4,12.2,74,30.19,2.5,East,15.0,21.9,N/A,,Overcast,100,2011-12-24 00:35:00
7:55 PM,19.4,14.0,80,30.19,2.0,East,16.1,-,N/A,,Overcast,100,2011-12-24 00:55:00
8:15 PM,19.4,15.8,86,30.20,2.5,East,15.0,-,N/A,,Overcast,100,2011-12-24 01:15:00
8:35 PM,19.4,15.8,86,30.20,3.0,East,15.0,-,N/A,,Overcast,100,2011-12-24 01:35:00
8:55 PM,19.4,15.8,86,30.20,3.0,East,15.0,-,N/A,,Overcast,100,2011-12-24 01:55:00
9:15 PM,19.4,15.8,86,30.20,3.0,East,13.8,-,N/A,,Overcast,90,2011-12-24 02:15:00
9:35 PM,21.2,15.8,80,30.20,3.0,East,12.7,-,N/A,,Overcast,100,2011-12-24 02:35:00
9:55 PM,19.4,17.6,93,30.19,3.0,East,9.2,-,N/A,,Overcast,90,2011-12-24 02:55:00
10:35 PM,19.4,14.0,80,30.20,8.0,ENE,9.2,-,N/A,,Overcast,70,2011-12-24 03:35:00
10:55 PM,19.4,15.8,86,30.20,7.0,East,9.2,-,N/A,,Overcast,80,2011-12-24 03:55:00
11:15 PM,19.4,15.8,86,30.20,5.0,East,10.4,-,N/A,,Overcast,90,2011-12-24 04:15:00
11:35 PM,19.4,15.8,86,30.19,3.0,East,10.4,-,N/A,,Overcast,90,2011-12-24 04:35:00
11:55 PM,19.4,15.8,86,30.19,10.0,East,11.5,-,N/A,,Overcast,90,2011-12-24 04:55:00